{"data":{"norad_id":57524,"intl_designator":"2023-115D","name":"STARLINK-30260","alt_names":[],"object_type":"PAYLOAD","status":"ACTIVE","operator":null,"country":"US","launch_date":"2023-08-08","launch_site_code":"AFWTR","launch_vehicle":null,"mission":null,"orbit_class":"UNKNOWN","rcs_meters":null,"size_class":null,"mass_kg":null,"dimensions":null,"purposes":["comms"],"wikipedia_slug":null,"has_3d_model":false,"image_url":null,"decayed_at":null,"tle_current":{"epoch":"2026-09-20T16:28:43.393440Z","epoch_age_seconds":111819,"freshness":"FRESH","line1":"1 57524U 23115D   26263.68661335  .00001650  00000+0  69451-4 0  9992","line2":"2 57524  43.0026 340.3686 0001075 261.6682  98.4047 15.27591008172172","mean_motion":15.27591008,"eccentricity":0.0001075,"inclination_deg":43.0026,"raan_deg":340.3686,"arg_perigee_deg":261.6682,"mean_anomaly_deg":98.4047,"bstar":6.9451e-5,"rev_number":17217,"period_min":94.266069416402,"perigee_km":482.27856036355,"apogee_km":483.75370828743,"semimajor_km":6861.1531343255,"source":"CELESTRAK","updated_at":"2026-09-21T09:00:33.637237Z"}}}